Time,TemperatureF,DewpointF,PressureIn,WindDirection,WindDirectionDegrees,WindSpeedMPH,WindSpeedGustMPH,Humidity,HourlyPrecipIn,Conditions,Clouds,dailyrainin,SoftwareType,DateUTC
2013-05-20 00:01:00,67.3,60.6,29.53,ESE,105,3.1,4.0,79,0.00,,,0.00,meteobridge,2013-05-20 07:01:00,
2013-05-20 00:05:00,67.3,60.6,29.53,East,93,3.1,5.8,79,0.00,,,0.00,meteobridge,2013-05-20 07:05:00,
2013-05-20 00:07:00,67.3,60.6,29.53,ESE,103,0.0,5.4,79,0.00,,,0.00,meteobridge,2013-05-20 07:07:00,
2013-05-20 00:12:00,67.1,60.4,29.53,SE,126,0.0,3.6,79,0.00,,,0.00,meteobridge,2013-05-20 07:12:00,
2013-05-20 00:14:00,67.1,60.8,29.53,ESE,106,0.0,4.0,80,0.00,,,0.00,meteobridge,2013-05-20 07:14:00,
2013-05-20 00:16:00,67.1,60.8,29.53,ESE,120,2.7,4.0,80,0.00,,,0.00,meteobridge,2013-05-20 07:16:00,
2013-05-20 00:18:00,67.1,60.8,29.53,East,101,0.0,4.0,80,0.00,,,0.00,meteobridge,2013-05-20 07:18:00,
2013-05-20 00:22:00,66.9,60.6,29.53,ESE,103,3.1,4.0,80,0.00,,,0.00,meteobridge,2013-05-20 07:22:00,
2013-05-20 00:24:00,66.9,60.6,29.53,East,92,0.0,3.6,80,0.00,,,0.00,meteobridge,2013-05-20 07:24:00,
2013-05-20 00:26:00,66.9,61.0,29.53,ESE,102,4.5,4.5,81,0.00,,,0.00,meteobridge,2013-05-20 07:26:00,
2013-05-20 00:28:00,67.1,61.2,29.53,ESE,121,0.0,5.4,81,0.00,,,0.00,meteobridge,2013-05-20 07:28:00,
2013-05-20 00:31:00,67.1,61.2,29.53,ESE,108,0.0,5.4,81,0.00,,,0.00,meteobridge,2013-05-20 07:31:00,
2013-05-20 00:35:00,67.1,61.2,29.53,East,90,4.9,4.9,81,0.00,,,0.00,meteobridge,2013-05-20 07:35:00,
2013-05-20 00:37:00,67.1,61.2,29.53,East,101,3.6,5.8,81,0.00,,,0.00,meteobridge,2013-05-20 07:37:00,
2013-05-20 00:41:00,67.3,61.2,29.53,ESE,106,5.4,6.3,81,0.00,,,0.00,meteobridge,2013-05-20 07:41:00,
2013-05-20 00:45:00,67.1,61.2,29.53,East,87,4.9,4.9,81,0.00,,,0.00,meteobridge,2013-05-20 07:45:00,
2013-05-20 00:49:00,66.9,61.0,29.53,ESE,112,2.2,4.0,81,0.00,,,0.00,meteobridge,2013-05-20 07:49:00,
2013-05-20 00:51:00,66.9,61.0,29.53,ESE,102,3.1,4.0,81,0.00,,,0.00,meteobridge,2013-05-20 07:51:00,
2013-05-20 00:53:00,66.9,61.0,29.53,ESE,102,0.0,4.0,81,0.00,,,0.00,meteobridge,2013-05-20 07:53:00,
2013-05-20 00:55:00,66.7,60.8,29.53,East,97,4.0,5.4,81,0.00,,,0.00,meteobridge,2013-05-20 07:55:00,
2013-05-20 00:58:00,66.9,61.0,29.53,East,98,3.6,4.9,81,0.00,,,0.00,meteobridge,2013-05-20 07:58:00,
2013-05-20 01:02:00,66.7,60.8,29.53,SE,126,2.2,3.1,81,0.00,,,0.00,meteobridge,2013-05-20 08:02:00,
2013-05-20 01:06:00,66.6,60.6,29.53,ESE,108,2.7,3.1,81,0.00,,,0.00,meteobridge,2013-05-20 08:06:00,
2013-05-20 01:08:00,66.6,60.6,29.53,East,100,0.0,0.0,81,0.00,,,0.00,meteobridge,2013-05-20 08:08:00,
2013-05-20 01:10:00,66.6,60.6,29.53,ESE,111,2.7,4.0,81,0.00,,,0.00,meteobridge,2013-05-20 08:10:00,
2013-05-20 01:14:00,66.6,61.0,29.53,East,99,3.6,5.8,82,0.00,,,0.00,meteobridge,2013-05-20 08:14:00,
2013-05-20 01:18:00,66.7,61.0,29.53,ESE,108,0.0,4.5,82,0.00,,,0.00,meteobridge,2013-05-20 08:18:00,
2013-05-20 01:20:00,66.6,61.0,29.53,ESE,102,4.5,5.4,82,0.00,,,0.00,meteobridge,2013-05-20 08:20:00,
2013-05-20 01:25:00,66.6,61.0,29.53,ENE,74,4.9,5.4,82,0.00,,,0.00,meteobridge,2013-05-20 08:25:00,
2013-05-20 01:29:00,66.6,61.0,29.53,ESE,105,4.0,4.0,82,0.00,,,0.00,meteobridge,2013-05-20 08:29:00,
2013-05-20 01:31:00,66.6,61.0,29.53,East,100,3.1,4.0,82,0.00,,,0.00,meteobridge,2013-05-20 08:31:00,
2013-05-20 01:35:00,66.4,60.8,29.53,ESE,106,3.1,5.4,82,0.00,,,0.00,meteobridge,2013-05-20 08:35:00,
2013-05-20 01:37:00,66.4,60.8,29.53,ESE,106,2.7,4.0,82,0.00,,,0.00,meteobridge,2013-05-20 08:37:00,
2013-05-20 01:39:00,66.4,61.0,29.53,ESE,106,2.7,5.4,83,0.00,,,0.00,meteobridge,2013-05-20 08:39:00,
2013-05-20 01:41:00,66.4,61.0,29.53,East,97,3.6,4.0,83,0.00,,,0.00,meteobridge,2013-05-20 08:41:00,
2013-05-20 01:46:00,66.2,60.8,29.53,ESE,111,3.6,5.8,83,0.00,,,0.00,meteobridge,2013-05-20 08:46:00,
2013-05-20 01:48:00,66.4,61.0,29.53,ESE,107,3.1,4.0,83,0.00,,,0.00,meteobridge,2013-05-20 08:48:00,
2013-05-20 01:52:00,66.2,60.8,29.53,ESE,104,0.0,4.0,83,0.00,,,0.00,meteobridge,2013-05-20 08:52:00,
2013-05-20 01:54:00,66.2,60.8,29.53,East,100,0.0,0.0,83,0.00,,,0.00,meteobridge,2013-05-20 08:54:00,
2013-05-20 01:56:00,66.0,60.6,29.53,ESE,112,2.7,3.1,83,0.00,,,0.00,meteobridge,2013-05-20 08:56:00,
2013-05-20 01:58:00,66.0,60.6,29.53,East,89,0.0,4.0,83,0.00,,,0.00,meteobridge,2013-05-20 08:58:00,
2013-05-20 02:00:00,66.2,60.8,29.53,ESE,102,3.6,4.0,83,0.00,,,0.00,meteobridge,2013-05-20 09:00:00,
2013-05-20 02:05:00,66.4,61.3,29.53,ESE,106,3.1,5.4,84,0.00,,,0.00,meteobridge,2013-05-20 09:05:00,
2013-05-20 02:07:00,66.4,61.3,29.53,East,91,0.0,3.1,84,0.00,,,0.00,meteobridge,2013-05-20 09:07:00,
2013-05-20 02:09:00,66.4,61.3,29.53,East,101,2.2,4.0,84,0.00,,,0.00,meteobridge,2013-05-20 09:09:00,
2013-05-20 02:11:00,66.4,61.3,29.53,East,101,0.0,0.0,84,0.00,,,0.00,meteobridge,2013-05-20 09:11:00,
2013-05-20 02:13:00,66.4,61.3,29.53,ESE,117,0.0,3.6,84,0.00,,,0.00,meteobridge,2013-05-20 09:13:00,
2013-05-20 02:15:00,66.2,61.2,29.53,ESE,117,0.0,0.0,84,0.00,,,0.00,meteobridge,2013-05-20 09:15:00,
2013-05-20 02:17:00,66.4,61.7,29.53,East,80,0.0,0.0,85,0.00,,,0.00,meteobridge,2013-05-20 09:17:00,
2013-05-20 02:21:00,66.6,61.9,29.53,East,97,0.0,0.0,85,0.00,,,0.00,meteobridge,2013-05-20 09:21:00,
2013-05-20 02:23:00,66.7,62.4,29.53,ESE,110,3.1,4.0,86,0.00,,,0.00,meteobridge,2013-05-20 09:23:00,
2013-05-20 02:26:00,66.9,62.6,29.53,ESE,112,0.0,3.6,86,0.00,,,0.00,meteobridge,2013-05-20 09:26:00,
2013-05-20 02:28:00,66.9,62.6,29.53,East,98,2.7,3.6,86,0.00,,,0.00,meteobridge,2013-05-20 09:28:00,
2013-05-20 02:30:00,67.1,62.8,29.53,ESE,104,2.7,5.8,86,0.00,,,0.00,meteobridge,2013-05-20 09:30:00,
2013-05-20 02:36:00,66.9,62.6,29.53,ESE,108,0.0,0.0,86,0.00,,,0.00,meteobridge,2013-05-20 09:36:00,
2013-05-20 02:38:00,66.9,62.6,29.53,ESE,110,0.0,0.0,86,0.00,,,0.00,meteobridge,2013-05-20 09:38:00,
2013-05-20 02:44:00,66.9,62.2,29.53,ESE,118,2.7,5.4,85,0.00,,,0.00,meteobridge,2013-05-20 09:44:00,
2013-05-20 02:49:00,66.9,62.6,29.53,East,98,0.0,4.9,86,0.00,,,0.00,meteobridge,2013-05-20 09:49:00,
2013-05-20 02:51:00,66.9,62.2,29.53,East,93,0.0,3.1,85,0.00,,,0.00,meteobridge,2013-05-20 09:51:00,
2013-05-20 02:53:00,66.9,62.2,29.53,ESE,109,2.7,2.7,85,0.00,,,0.00,meteobridge,2013-05-20 09:53:00,
2013-05-20 02:55:00,66.9,62.2,29.53,ESE,109,3.1,3.6,85,0.00,,,0.00,meteobridge,2013-05-20 09:55:00,
2013-05-20 02:57:00,66.9,62.2,29.53,ESE,113,3.1,3.6,85,0.00,,,0.00,meteobridge,2013-05-20 09:57:00,
2013-05-20 03:01:00,66.7,62.1,29.53,SE,125,0.0,5.4,85,0.00,,,0.00,meteobridge,2013-05-20 10:01:00,
2013-05-20 03:03:00,66.6,61.9,29.53,ESE,115,0.0,0.0,85,0.00,,,0.00,meteobridge,2013-05-20 10:03:00,
2013-05-20 03:05:00,66.4,61.7,29.53,East,88,5.4,5.4,85,0.00,,,0.00,meteobridge,2013-05-20 10:05:00,
2013-05-20 03:09:00,66.2,61.5,29.53,East,87,0.0,4.0,85,0.00,,,0.00,meteobridge,2013-05-20 10:09:00,
2013-05-20 03:11:00,66.0,61.3,29.53,ESE,103,0.0,2.7,85,0.00,,,0.00,meteobridge,2013-05-20 10:11:00,
2013-05-20 03:13:00,66.0,61.3,29.53,East,98,3.6,3.6,85,0.00,,,0.00,meteobridge,2013-05-20 10:13:00,
2013-05-20 03:15:00,65.8,61.2,29.53,ENE,72,0.0,3.6,85,0.00,,,0.00,meteobridge,2013-05-20 10:15:00,
2013-05-20 03:20:00,65.7,61.0,29.53,East,87,3.6,3.6,85,0.00,,,0.00,meteobridge,2013-05-20 10:20:00,
2013-05-20 03:22:00,65.7,61.0,29.53,East,79,0.0,3.6,85,0.00,,,0.00,meteobridge,2013-05-20 10:22:00,
2013-05-20 03:26:00,65.5,60.8,29.53,ESE,123,0.0,3.6,85,0.00,,,0.00,meteobridge,2013-05-20 10:26:00,
2013-05-20 03:28:00,65.5,60.8,29.53,ESE,114,0.0,0.0,85,0.00,,,0.00,meteobridge,2013-05-20 10:28:00,
2013-05-20 03:32:00,65.1,60.4,29.53,East,90,0.0,4.0,85,0.00,,,0.00,meteobridge,2013-05-20 10:32:00,
2013-05-20 03:34:00,65.1,60.4,29.53,ESE,107,0.0,0.0,85,0.00,,,0.00,meteobridge,2013-05-20 10:34:00,
2013-05-20 03:36:00,65.1,60.4,29.53,East,99,0.0,4.0,85,0.00,,,0.00,meteobridge,2013-05-20 10:36:00,
2013-05-20 03:39:00,65.1,60.4,29.53,ESE,103,4.9,4.9,85,0.00,,,0.00,meteobridge,2013-05-20 10:39:00,
2013-05-20 03:41:00,65.3,60.6,29.53,ESE,106,4.0,5.4,85,0.00,,,0.00,meteobridge,2013-05-20 10:41:00,
2013-05-20 03:45:00,65.7,61.0,29.53,East,83,3.1,4.0,85,0.00,,,0.00,meteobridge,2013-05-20 10:45:00,
2013-05-20 03:49:00,65.8,61.5,29.53,ESE,111,3.1,4.0,86,0.00,,,0.00,meteobridge,2013-05-20 10:49:00,
2013-05-20 03:51:00,65.8,61.2,29.53,ESE,109,3.6,4.0,85,0.00,,,0.00,meteobridge,2013-05-20 10:51:00,
2013-05-20 03:53:00,66.0,61.7,29.53,ESE,120,2.7,4.0,86,0.00,,,0.00,meteobridge,2013-05-20 10:53:00,
2013-05-20 03:55:00,66.0,61.7,29.53,ESE,104,2.7,4.0,86,0.00,,,0.00,meteobridge,2013-05-20 10:55:00,
2013-05-20 03:57:00,66.0,61.7,29.53,ESE,108,2.7,4.0,86,0.00,,,0.00,meteobridge,2013-05-20 10:57:00,
2013-05-20 04:00:00,66.0,61.7,29.53,East,95,0.0,3.1,86,0.00,,,0.00,meteobridge,2013-05-20 11:00:00,
2013-05-20 04:04:00,66.0,61.7,29.53,ESE,113,3.1,4.0,86,0.00,,,0.00,meteobridge,2013-05-20 11:04:00,
2013-05-20 04:06:00,66.0,61.7,29.53,ESE,108,0.0,4.0,86,0.00,,,0.00,meteobridge,2013-05-20 11:06:00,
2013-05-20 04:08:00,66.0,61.7,29.53,East,94,2.7,3.6,86,0.00,,,0.00,meteobridge,2013-05-20 11:08:00,
2013-05-20 04:12:00,66.0,61.7,29.53,East,96,0.0,0.0,86,0.00,,,0.00,meteobridge,2013-05-20 11:12:00,
2013-05-20 04:14:00,66.0,61.7,29.53,ESE,106,0.0,0.0,86,0.00,,,0.00,meteobridge,2013-05-20 11:14:00,
2013-05-20 04:16:00,66.0,61.7,29.53,SE,133,0.0,0.0,86,0.00,,,0.00,meteobridge,2013-05-20 11:16:00,
2013-05-20 04:21:00,66.4,62.1,29.53,ESE,104,4.0,4.5,86,0.00,,,0.00,meteobridge,2013-05-20 11:21:00,
2013-05-20 04:23:00,66.4,62.1,29.53,ESE,104,0.0,3.6,86,0.00,,,0.00,meteobridge,2013-05-20 11:23:00,
2013-05-20 04:25:00,66.4,62.1,29.53,ESE,109,0.0,0.0,86,0.00,,,0.00,meteobridge,2013-05-20 11:25:00,
2013-05-20 04:27:00,66.4,62.4,29.53,East,96,2.2,2.7,87,0.00,,,0.00,meteobridge,2013-05-20 11:27:00,
2013-05-20 04:29:00,66.6,62.6,29.53,East,95,0.0,4.9,87,0.00,,,0.00,meteobridge,2013-05-20 11:29:00,
2013-05-20 04:33:00,66.9,63.0,29.53,SE,125,3.1,5.8,87,0.00,,,0.00,meteobridge,2013-05-20 11:33:00,
2013-05-20 04:45:00,-999.0,-99.9,-100.00,ESE,109,3.1,3.1,-999,-99.99,,,0.00,meteobridge,2013-05-20 11:45:00,
2013-05-20 04:58:00,67.8,63.9,29.53,ESE,104,3.1,3.1,87,0.00,,,0.00,meteobridge,2013-05-20 11:58:00,
2013-05-20 05:02:00,67.8,63.5,29.53,East,95,0.0,3.6,86,0.00,,,0.00,meteobridge,2013-05-20 12:02:00,
2013-05-20 05:04:00,68.0,63.7,29.53,ESE,102,0.0,2.7,86,0.00,,,0.00,meteobridge,2013-05-20 12:04:00,
2013-05-20 05:06:00,68.0,63.7,29.53,ENE,75,4.0,4.0,86,0.00,,,0.00,meteobridge,2013-05-20 12:06:00,
2013-05-20 05:08:00,68.0,63.3,29.53,NNE,33,0.0,4.9,85,0.00,,,0.00,meteobridge,2013-05-20 12:08:00,
2013-05-20 05:12:00,68.0,63.3,29.53,ESE,111,3.6,3.6,85,0.00,,,0.00,meteobridge,2013-05-20 12:12:00,
2013-05-20 05:16:00,68.2,63.1,29.53,East,87,0.0,0.0,84,0.00,,,0.00,meteobridge,2013-05-20 12:16:00,
2013-05-20 05:18:00,68.0,63.0,29.53,East,99,2.7,3.1,84,0.00,,,0.00,meteobridge,2013-05-20 12:18:00,
2013-05-20 05:20:00,68.2,63.1,29.53,East,101,3.6,3.6,84,0.00,,,0.00,meteobridge,2013-05-20 12:20:00,
2013-05-20 05:23:00,68.2,63.1,29.53,East,94,5.4,5.4,84,0.00,,,0.00,meteobridge,2013-05-20 12:23:00,
2013-05-20 05:25:00,68.0,62.6,29.53,ENE,72,0.0,4.9,83,0.00,,,0.00,meteobridge,2013-05-20 12:25:00,
2013-05-20 05:29:00,68.2,62.4,29.53,East,88,4.0,4.9,82,0.00,,,0.00,meteobridge,2013-05-20 12:29:00,
2013-05-20 05:31:00,68.2,62.4,29.53,East,94,5.4,5.4,82,0.00,,,0.00,meteobridge,2013-05-20 12:31:00,
2013-05-20 05:33:00,68.2,62.4,29.53,NE,36,0.0,4.9,82,0.00,,,0.00,meteobridge,2013-05-20 12:33:00,
2013-05-20 05:35:00,68.4,62.6,29.53,East,87,3.6,4.5,82,0.00,,,0.00,meteobridge,2013-05-20 12:35:00,
2013-05-20 05:37:00,68.4,62.6,29.53,East,91,0.0,3.1,82,0.00,,,0.00,meteobridge,2013-05-20 12:37:00,
2013-05-20 05:39:00,68.4,62.6,29.53,East,83,3.1,4.0,82,0.00,,,0.00,meteobridge,2013-05-20 12:39:00,
2013-05-20 05:44:00,68.4,62.6,29.53,ENE,66,4.0,4.0,82,0.00,,,0.00,meteobridge,2013-05-20 12:44:00,
2013-05-20 05:46:00,68.4,62.6,29.53,ENE,70,2.2,4.9,82,0.00,,,0.00,meteobridge,2013-05-20 12:46:00,
2013-05-20 05:52:00,68.4,62.2,29.53,East,93,2.7,5.8,81,0.00,,,0.00,meteobridge,2013-05-20 12:52:00,
2013-05-20 05:54:00,68.4,62.2,29.53,ENE,78,0.0,3.6,81,0.00,,,0.00,meteobridge,2013-05-20 12:54:00,
2013-05-20 05:56:00,68.4,62.2,29.53,NE,44,4.0,4.5,81,0.00,,,0.00,meteobridge,2013-05-20 12:56:00,
2013-05-20 06:00:00,68.5,62.1,29.53,ENE,70,0.0,2.7,80,0.00,,,0.00,meteobridge,2013-05-20 13:00:00,
2013-05-20 06:03:00,68.5,62.1,29.53,East,89,2.7,3.6,80,0.00,,,0.00,meteobridge,2013-05-20 13:03:00,
2013-05-20 06:09:00,68.5,62.1,29.53,East,99,4.9,4.9,80,0.00,,,0.00,meteobridge,2013-05-20 13:09:00,
2013-05-20 06:11:00,68.5,62.1,29.53,ESE,104,0.0,5.4,80,0.00,,,0.00,meteobridge,2013-05-20 13:11:00,
2013-05-20 06:15:00,68.7,62.2,29.53,East,91,4.9,5.8,80,0.00,,,0.00,meteobridge,2013-05-20 13:15:00,
2013-05-20 06:17:00,68.7,62.2,29.53,East,101,0.0,4.0,80,0.00,,,0.00,meteobridge,2013-05-20 13:17:00,
2013-05-20 06:19:00,68.7,62.2,29.53,East,100,0.0,4.0,80,0.00,,,0.00,meteobridge,2013-05-20 13:19:00,
2013-05-20 06:24:00,68.9,62.1,29.53,NE,42,0.0,0.0,79,0.00,,,0.00,meteobridge,2013-05-20 13:24:00,
2013-05-20 06:26:00,69.1,62.2,29.53,ESE,104,0.0,0.0,79,0.00,,,0.00,meteobridge,2013-05-20 13:26:00,
2013-05-20 06:30:00,69.1,62.2,29.56,ENE,65,4.0,4.0,79,0.00,,,0.00,meteobridge,2013-05-20 13:30:00,
2013-05-20 06:32:00,69.3,62.1,29.56,ENE,60,0.0,3.6,78,0.00,,,0.00,meteobridge,2013-05-20 13:32:00,
2013-05-20 06:38:00,69.3,60.3,29.56,North,11,0.0,3.1,73,0.00,,,0.00,meteobridge,2013-05-20 13:38:00,
2013-05-20 06:40:00,69.4,60.4,29.56,NNE,29,0.0,4.0,73,0.00,,,0.00,meteobridge,2013-05-20 13:40:00,
2013-05-20 06:42:00,69.6,60.6,29.56,NNE,24,3.1,4.0,73,0.00,,,0.00,meteobridge,2013-05-20 13:42:00,
2013-05-20 06:45:00,69.8,60.4,29.56,East,99,0.0,4.9,72,0.00,,,0.00,meteobridge,2013-05-20 13:45:00,
2013-05-20 06:49:00,70.0,60.6,29.56,ENE,78,3.6,3.6,72,0.00,,,0.00,meteobridge,2013-05-20 13:49:00,
2013-05-20 06:53:00,70.3,60.4,29.56,East,84,0.0,0.0,71,0.00,,,0.00,meteobridge,2013-05-20 13:53:00,
2013-05-20 06:55:00,70.5,60.3,29.56,East,90,3.1,4.0,70,0.00,,,0.00,meteobridge,2013-05-20 13:55:00,
2013-05-20 06:57:00,70.5,60.3,29.56,East,86,0.0,4.0,70,0.00,,,0.00,meteobridge,2013-05-20 13:57:00,
2013-05-20 07:01:00,70.7,60.1,29.56,NE,52,0.0,4.0,69,0.00,,,0.00,meteobridge,2013-05-20 14:01:00,
2013-05-20 07:03:00,70.9,59.7,29.56,ENE,71,2.2,5.4,68,0.00,,,0.00,meteobridge,2013-05-20 14:03:00,
2013-05-20 07:06:00,71.1,59.5,29.56,East,100,0.0,2.7,67,0.00,,,0.00,meteobridge,2013-05-20 14:06:00,
2013-05-20 07:08:00,71.1,59.5,29.56,NNE,19,0.0,0.0,67,0.00,,,0.00,meteobridge,2013-05-20 14:08:00,
2013-05-20 07:10:00,71.2,59.4,29.56,East,93,4.9,4.9,66,0.00,,,0.00,meteobridge,2013-05-20 14:10:00,
2013-05-20 07:12:00,71.6,59.7,29.56,East,90,0.0,4.5,66,0.00,,,0.00,meteobridge,2013-05-20 14:12:00,
2013-05-20 07:14:00,71.6,59.2,29.56,East,81,0.0,4.0,65,0.00,,,0.00,meteobridge,2013-05-20 14:14:00,
2013-05-20 07:18:00,72.3,59.5,29.56,East,91,0.0,0.0,64,0.00,,,0.00,meteobridge,2013-05-20 14:18:00,
2013-05-20 07:20:00,72.5,59.5,29.56,East,82,0.0,0.0,64,0.00,,,0.00,meteobridge,2013-05-20 14:20:00,
2013-05-20 07:24:00,72.5,58.8,29.56,East,96,3.1,3.1,62,0.00,,,0.00,meteobridge,2013-05-20 14:24:00,
2013-05-20 07:27:00,73.0,58.8,29.56,East,91,3.1,3.1,61,0.00,,,0.00,meteobridge,2013-05-20 14:27:00,
2013-05-20 07:29:00,72.9,57.2,29.56,NE,56,2.7,4.9,58,0.00,,,0.00,meteobridge,2013-05-20 14:29:00,
2013-05-20 07:33:00,73.2,55.6,29.56,NE,54,2.7,4.0,54,0.00,,,0.00,meteobridge,2013-05-20 14:33:00,
2013-05-20 07:37:00,73.4,53.1,29.56,East,89,4.9,5.8,49,0.00,,,0.00,meteobridge,2013-05-20 14:37:00,
2013-05-20 07:39:00,73.4,52.5,29.56,East,92,2.7,4.0,48,0.00,,,0.00,meteobridge,2013-05-20 14:39:00,
2013-05-20 07:41:00,73.9,53.1,29.56,ENE,59,3.6,4.0,48,0.00,,,0.00,meteobridge,2013-05-20 14:41:00,
2013-05-20 07:43:00,73.9,51.3,29.56,NE,42,2.7,4.9,45,0.00,,,0.00,meteobridge,2013-05-20 14:43:00,
2013-05-20 07:47:00,74.1,50.2,29.56,North,357,0.0,3.6,43,0.00,,,0.00,meteobridge,2013-05-20 14:47:00,
2013-05-20 07:49:00,73.9,50.0,29.56,NE,45,0.0,4.0,43,0.00,,,0.00,meteobridge,2013-05-20 14:49:00,
2013-05-20 07:54:00,74.5,50.5,29.56,East,91,4.0,4.0,43,0.00,,,0.00,meteobridge,2013-05-20 14:54:00,
2013-05-20 07:56:00,74.7,50.7,29.56,NNE,18,3.1,4.0,43,0.00,,,0.00,meteobridge,2013-05-20 14:56:00,
2013-05-20 08:00:00,74.3,48.4,29.56,South,172,3.6,3.6,40,0.00,,,0.00,meteobridge,2013-05-20 15:00:00,
2013-05-20 08:02:00,73.4,48.2,29.56,SW,215,3.6,4.0,41,0.00,,,0.00,meteobridge,2013-05-20 15:02:00,
2013-05-20 08:04:00,73.0,48.6,29.56,SW,226,0.0,3.6,42,0.00,,,0.00,meteobridge,2013-05-20 15:04:00,
2013-05-20 08:10:00,73.8,48.6,29.56,East,91,2.2,5.4,41,0.00,,,0.00,meteobridge,2013-05-20 15:10:00,
2013-05-20 08:12:00,74.1,48.9,29.56,East,91,0.0,0.0,41,0.00,,,0.00,meteobridge,2013-05-20 15:12:00,
2013-05-20 08:16:00,73.0,48.0,29.56,SSW,196,0.0,0.0,41,0.00,,,0.00,meteobridge,2013-05-20 15:16:00,
2013-05-20 08:19:00,72.7,48.2,29.56,SSW,212,3.1,3.1,42,0.00,,,0.00,meteobridge,2013-05-20 15:19:00,
2013-05-20 08:23:00,72.5,48.0,29.56,East,97,2.7,4.0,42,0.00,,,0.00,meteobridge,2013-05-20 15:23:00,
2013-05-20 08:25:00,72.9,49.1,29.56,SE,136,0.0,2.7,43,0.00,,,0.00,meteobridge,2013-05-20 15:25:00,
2013-05-20 08:27:00,72.9,48.4,29.56,SE,141,0.0,0.0,42,0.00,,,0.00,meteobridge,2013-05-20 15:27:00,
2013-05-20 08:29:00,72.7,48.2,29.56,ESE,120,0.0,4.0,42,0.00,,,0.00,meteobridge,2013-05-20 15:29:00,
2013-05-20 08:35:00,73.2,48.7,29.56,South,187,2.7,4.0,42,0.00,,,0.00,meteobridge,2013-05-20 15:35:00,
2013-05-20 08:37:00,73.2,48.0,29.56,South,184,3.6,3.6,41,0.00,,,0.00,meteobridge,2013-05-20 15:37:00,
2013-05-20 08:40:00,73.0,49.3,29.56,SSW,197,2.7,4.9,43,0.00,,,0.00,meteobridge,2013-05-20 15:40:00,
2013-05-20 08:44:00,72.3,50.4,29.56,SW,219,5.4,6.3,46,0.00,,,0.00,meteobridge,2013-05-20 15:44:00,
2013-05-20 08:46:00,72.1,50.2,29.56,SSE,161,2.7,4.9,46,0.00,,,0.00,meteobridge,2013-05-20 15:46:00,
2013-05-20 08:48:00,72.1,51.4,29.56,South,177,4.9,6.7,48,0.00,,,0.00,meteobridge,2013-05-20 15:48:00,
2013-05-20 08:50:00,72.0,51.3,29.56,SSE,165,4.0,6.3,48,0.00,,,0.00,meteobridge,2013-05-20 15:50:00,
2013-05-20 08:52:00,72.1,51.4,29.56,WSW,238,3.6,5.4,48,0.00,,,0.00,meteobridge,2013-05-20 15:52:00,
2013-05-20 08:54:00,72.3,50.9,29.56,SSW,198,5.4,5.4,47,0.00,,,0.00,meteobridge,2013-05-20 15:54:00,
2013-05-20 08:56:00,72.5,51.1,29.56,South,170,3.6,6.3,47,0.00,,,0.00,meteobridge,2013-05-20 15:56:00,
2013-05-20 08:58:00,72.9,51.4,29.56,South,173,3.6,4.0,47,0.00,,,0.00,meteobridge,2013-05-20 15:58:00,
2013-05-20 09:00:00,72.5,50.5,29.56,South,186,5.8,5.8,46,0.00,,,0.00,meteobridge,2013-05-20 16:00:00,
2013-05-20 09:02:00,72.9,50.9,29.56,South,174,4.0,6.3,46,0.00,,,0.00,meteobridge,2013-05-20 16:02:00,
2013-05-20 09:05:00,72.7,50.7,29.56,SSE,156,5.4,7.6,46,0.00,,,0.00,meteobridge,2013-05-20 16:05:00,
2013-05-20 09:09:00,72.9,50.4,29.56,South,191,5.8,6.3,45,0.00,,,0.00,meteobridge,2013-05-20 16:09:00,
2013-05-20 09:11:00,72.9,50.4,29.56,SW,220,6.3,6.3,45,0.00,,,0.00,meteobridge,2013-05-20 16:11:00,
2013-05-20 09:13:00,72.9,50.9,29.56,SSW,196,5.4,5.8,46,0.00,,,0.00,meteobridge,2013-05-20 16:13:00,
2013-05-20 09:15:00,73.4,50.7,29.56,SSW,192,5.4,6.3,45,0.00,,,0.00,meteobridge,2013-05-20 16:15:00,
2013-05-20 09:19:00,72.9,49.6,29.56,SSW,208,0.0,5.4,44,0.00,,,0.00,meteobridge,2013-05-20 16:19:00,
2013-05-20 09:21:00,72.9,49.1,29.56,SW,214,2.7,4.9,43,0.00,,,0.00,meteobridge,2013-05-20 16:21:00,
2013-05-20 09:23:00,73.0,49.8,29.56,WSW,248,2.7,5.8,44,0.00,,,0.00,meteobridge,2013-05-20 16:23:00,
2013-05-20 09:28:00,73.8,49.8,29.56,SSW,213,3.1,5.8,43,0.00,,,0.00,meteobridge,2013-05-20 16:28:00,
2013-05-20 09:30:00,73.0,49.3,29.56,SW,226,5.4,5.8,43,0.00,,,0.00,meteobridge,2013-05-20 16:30:00,
2013-05-20 09:36:00,72.7,50.2,29.56,SW,221,5.8,7.6,45,0.00,,,0.00,meteobridge,2013-05-20 16:36:00,
2013-05-20 09:38:00,72.9,50.9,29.56,SSE,147,4.0,6.3,46,0.00,,,0.00,meteobridge,2013-05-20 16:38:00,
2013-05-20 09:42:00,73.4,50.2,29.56,WNW,282,3.6,8.3,44,0.00,,,0.00,meteobridge,2013-05-20 16:42:00,
2013-05-20 09:48:00,72.7,50.2,29.56,SSW,211,3.1,7.6,45,0.00,,,0.00,meteobridge,2013-05-20 16:48:00,
2013-05-20 09:50:00,73.6,50.4,29.56,South,181,4.0,6.3,44,0.00,,,0.00,meteobridge,2013-05-20 16:50:00,
2013-05-20 09:52:00,73.2,49.5,29.56,SSW,211,3.1,6.3,43,0.00,,,0.00,meteobridge,2013-05-20 16:52:00,
2013-05-20 09:54:00,73.8,49.3,29.56,SW,226,5.8,5.8,42,0.00,,,0.00,meteobridge,2013-05-20 16:54:00,
2013-05-20 09:59:00,74.1,50.2,29.56,SW,229,3.6,5.8,43,0.00,,,0.00,meteobridge,2013-05-20 16:59:00,
2013-05-20 10:01:00,73.9,49.5,29.56,South,185,5.4,6.3,42,0.00,,,0.00,meteobridge,2013-05-20 17:01:00,
2013-05-20 10:03:00,74.7,50.0,29.56,SW,224,2.7,4.0,42,0.00,,,0.00,meteobridge,2013-05-20 17:03:00,
2013-05-20 10:05:00,74.8,49.6,29.56,SSW,200,7.2,7.2,41,0.00,,,0.00,meteobridge,2013-05-20 17:05:00,
2013-05-20 10:07:00,74.3,49.1,29.56,WSW,244,3.1,5.8,41,0.00,,,0.00,meteobridge,2013-05-20 17:07:00,
2013-05-20 10:13:00,75.0,49.6,29.56,SW,218,4.0,5.8,41,0.00,,,0.00,meteobridge,2013-05-20 17:13:00,
2013-05-20 10:15:00,75.2,49.8,29.56,SSW,212,5.8,5.8,41,0.00,,,0.00,meteobridge,2013-05-20 17:15:00,
2013-05-20 10:17:00,76.1,49.3,29.56,SSW,195,0.0,6.3,39,0.00,,,0.00,meteobridge,2013-05-20 17:17:00,
2013-05-20 10:21:00,75.4,47.3,29.56,SSW,208,3.6,5.4,37,0.00,,,0.00,meteobridge,2013-05-20 17:21:00,
2013-05-20 10:24:00,75.2,47.1,29.56,South,191,3.1,8.3,37,0.00,,,0.00,meteobridge,2013-05-20 17:24:00,
2013-05-20 10:28:00,75.0,48.4,29.56,SSE,163,5.8,8.3,39,0.00,,,0.00,meteobridge,2013-05-20 17:28:00,
2013-05-20 10:30:00,76.5,47.5,29.56,SSW,198,4.0,5.8,36,0.00,,,0.00,meteobridge,2013-05-20 17:30:00,
2013-05-20 10:36:00,78.8,46.4,29.56,WSW,237,5.4,5.4,32,0.00,,,0.00,meteobridge,2013-05-20 17:36:00,
2013-05-20 10:38:00,79.9,46.6,29.56,SSW,198,2.2,4.9,31,0.00,,,0.00,meteobridge,2013-05-20 17:38:00,
2013-05-20 10:43:00,78.6,45.5,29.56,SSW,194,6.7,6.7,31,0.00,,,0.00,meteobridge,2013-05-20 17:43:00,
2013-05-20 10:45:00,78.1,45.0,29.56,SSW,200,4.0,5.8,31,0.00,,,0.00,meteobridge,2013-05-20 17:45:00,
2013-05-20 10:51:00,79.3,45.1,29.56,South,169,4.0,5.4,30,0.00,,,0.00,meteobridge,2013-05-20 17:51:00,
2013-05-20 10:55:00,77.7,44.6,29.56,South,171,3.1,5.8,31,0.00,,,0.00,meteobridge,2013-05-20 17:55:00,
2013-05-20 10:57:00,77.4,44.4,29.56,South,187,4.0,6.3,31,0.00,,,0.00,meteobridge,2013-05-20 17:57:00,
2013-05-20 10:59:00,77.7,44.6,29.56,SW,233,5.8,6.3,31,0.00,,,0.00,meteobridge,2013-05-20 17:59:00,
2013-05-20 11:04:00,76.6,44.6,29.56,SW,221,5.4,7.6,32,0.00,,,0.00,meteobridge,2013-05-20 18:04:00,
2013-05-20 11:06:00,76.8,44.8,29.56,SSE,157,2.7,7.6,32,0.00,,,0.00,meteobridge,2013-05-20 18:06:00,
2013-05-20 11:08:00,77.2,44.2,29.56,South,186,5.8,6.7,31,0.00,,,0.00,meteobridge,2013-05-20 18:08:00,
2013-05-20 11:12:00,78.1,45.0,29.56,SSW,196,3.6,7.6,31,0.00,,,0.00,meteobridge,2013-05-20 18:12:00,
2013-05-20 11:18:00,79.3,45.1,29.56,SSW,208,4.0,6.3,30,0.00,,,0.00,meteobridge,2013-05-20 18:18:00,
2013-05-20 11:23:00,77.7,44.6,29.56,South,172,4.0,6.3,31,0.00,,,0.00,meteobridge,2013-05-20 18:23:00,
2013-05-20 11:25:00,77.9,44.8,29.56,SSW,199,3.1,7.6,31,0.00,,,0.00,meteobridge,2013-05-20 18:25:00,
2013-05-20 11:27:00,76.6,44.6,29.56,South,181,4.9,7.6,32,0.00,,,0.00,meteobridge,2013-05-20 18:27:00,
2013-05-20 11:31:00,80.6,46.2,29.56,West,275,4.0,5.8,30,0.00,,,0.00,meteobridge,2013-05-20 18:31:00,
2013-05-20 11:33:00,77.4,45.1,29.56,SW,221,3.1,6.3,32,0.00,,,0.00,meteobridge,2013-05-20 18:33:00,
2013-05-20 11:35:00,78.4,45.3,29.56,SW,215,3.1,5.8,31,0.00,,,0.00,meteobridge,2013-05-20 18:35:00,
2013-05-20 11:39:00,78.8,44.8,29.56,SSW,208,5.8,7.6,30,0.00,,,0.00,meteobridge,2013-05-20 18:39:00,
2013-05-20 11:42:00,78.8,45.7,29.56,WNW,300,3.6,6.3,31,0.00,,,0.00,meteobridge,2013-05-20 18:42:00,
2013-05-20 11:46:00,80.1,45.9,29.56,West,264,2.7,5.4,30,0.00,,,0.00,meteobridge,2013-05-20 18:46:00,
2013-05-20 11:48:00,79.7,45.5,29.56,SSW,192,6.3,7.2,30,0.00,,,0.00,meteobridge,2013-05-20 18:48:00,
2013-05-20 11:50:00,77.9,44.8,29.56,SSW,200,5.8,6.7,31,0.00,,,0.00,meteobridge,2013-05-20 18:50:00,
2013-05-20 11:52:00,77.4,44.4,29.56,SW,227,3.1,7.6,31,0.00,,,0.00,meteobridge,2013-05-20 18:52:00,
2013-05-20 11:54:00,78.3,45.1,29.56,SW,232,5.8,8.3,31,0.00,,,0.00,meteobridge,2013-05-20 18:54:00,
2013-05-20 11:58:00,77.2,45.0,29.56,South,184,6.3,7.2,32,0.00,,,0.00,meteobridge,2013-05-20 18:58:00,
2013-05-20 12:00:00,77.0,44.1,29.56,South,178,6.3,8.7,31,0.00,,,0.00,meteobridge,2013-05-20 19:00:00,
2013-05-20 12:02:00,78.1,45.0,29.56,South,186,3.6,6.3,31,0.00,,,0.00,meteobridge,2013-05-20 19:02:00,
2013-05-20 12:04:00,78.4,44.4,29.56,WSW,238,3.6,5.8,30,0.00,,,0.00,meteobridge,2013-05-20 19:04:00,
2013-05-20 12:07:00,80.1,45.9,29.56,SSW,212,6.3,6.3,30,0.00,,,0.00,meteobridge,2013-05-20 19:07:00,
2013-05-20 12:09:00,78.8,45.7,29.56,SSW,193,5.8,7.6,31,0.00,,,0.00,meteobridge,2013-05-20 19:09:00,
2013-05-20 12:13:00,80.2,46.0,29.56,West,269,2.7,4.0,30,0.00,,,0.00,meteobridge,2013-05-20 19:13:00,
2013-05-20 12:15:00,79.5,45.3,29.56,WNW,283,4.0,5.4,30,0.00,,,0.00,meteobridge,2013-05-20 19:15:00,
2013-05-20 12:19:00,81.1,45.9,29.56,SW,232,3.1,6.3,29,0.00,,,0.00,meteobridge,2013-05-20 19:19:00,
2013-05-20 12:23:00,79.7,45.5,29.56,SW,234,4.9,7.6,30,0.00,,,0.00,meteobridge,2013-05-20 19:23:00,
2013-05-20 12:25:00,80.2,46.0,29.56,WSW,245,5.4,6.3,30,0.00,,,0.00,meteobridge,2013-05-20 19:25:00,
2013-05-20 12:27:00,81.5,46.2,29.56,NW,319,5.4,6.3,29,0.00,,,0.00,meteobridge,2013-05-20 19:27:00,
2013-05-20 12:29:00,81.3,46.0,29.56,West,265,5.8,6.3,29,0.00,,,0.00,meteobridge,2013-05-20 19:29:00,
2013-05-20 12:34:00,80.2,46.0,29.56,WSW,244,5.8,7.6,30,0.00,,,0.00,meteobridge,2013-05-20 19:34:00,
2013-05-20 12:36:00,80.4,46.2,29.56,WSW,253,4.0,5.8,30,0.00,,,0.00,meteobridge,2013-05-20 19:36:00,
2013-05-20 12:40:00,79.9,45.7,29.56,SSW,213,6.3,8.7,30,0.00,,,0.00,meteobridge,2013-05-20 19:40:00,
2013-05-20 12:42:00,78.6,45.5,29.56,WSW,255,4.0,5.8,31,0.00,,,0.00,meteobridge,2013-05-20 19:42:00,
2013-05-20 12:44:00,79.0,45.0,29.56,WSW,248,4.9,5.8,30,0.00,,,0.00,meteobridge,2013-05-20 19:44:00,
2013-05-20 12:46:00,79.0,45.0,29.56,WSW,249,5.4,5.4,30,0.00,,,0.00,meteobridge,2013-05-20 19:46:00,
2013-05-20 12:48:00,79.3,45.1,29.56,SSW,211,4.0,8.1,30,0.00,,,0.00,meteobridge,2013-05-20 19:48:00,
2013-05-20 12:53:00,80.8,45.5,29.56,West,268,0.0,5.8,29,0.00,,,0.00,meteobridge,2013-05-20 19:53:00,
2013-05-20 12:55:00,81.5,46.2,29.56,West,263,6.3,7.6,29,0.00,,,0.00,meteobridge,2013-05-20 19:55:00,
2013-05-20 12:57:00,82.6,46.2,29.56,West,275,3.1,5.8,28,0.00,,,0.00,meteobridge,2013-05-20 19:57:00,
2013-05-20 12:59:00,82.8,46.4,29.56,SW,234,3.1,6.3,28,0.00,,,0.00,meteobridge,2013-05-20 19:59:00,
2013-05-20 13:01:00,83.5,46.0,29.56,WNW,297,0.0,5.4,27,0.00,,,0.00,meteobridge,2013-05-20 20:01:00,
2013-05-20 13:05:00,82.0,44.8,29.56,SW,225,5.8,5.8,27,0.00,,,0.00,meteobridge,2013-05-20 20:05:00,
2013-05-20 13:07:00,82.2,45.0,29.56,West,268,5.4,7.6,27,0.00,,,0.00,meteobridge,2013-05-20 20:07:00,
2013-05-20 13:11:00,80.2,45.1,29.56,SSW,194,6.3,7.6,29,0.00,,,0.00,meteobridge,2013-05-20 20:11:00,
2013-05-20 13:13:00,78.4,44.4,29.56,West,265,4.9,7.6,30,0.00,,,0.00,meteobridge,2013-05-20 20:13:00,
2013-05-20 13:18:00,80.8,45.5,29.56,West,279,4.0,5.8,29,0.00,,,0.00,meteobridge,2013-05-20 20:18:00,
2013-05-20 13:20:00,81.5,45.3,29.56,WSW,239,4.0,5.8,28,0.00,,,0.00,meteobridge,2013-05-20 20:20:00,
2013-05-20 13:22:00,82.9,44.6,29.56,West,275,3.6,6.3,26,0.00,,,0.00,meteobridge,2013-05-20 20:22:00,
2013-05-20 13:26:00,83.1,44.6,29.56,WSW,251,6.3,6.3,26,0.00,,,0.00,meteobridge,2013-05-20 20:26:00,
2013-05-20 13:28:00,82.9,44.6,29.56,WSW,257,5.8,6.3,26,0.00,,,0.00,meteobridge,2013-05-20 20:28:00,
2013-05-20 13:30:00,81.0,42.8,29.56,SW,214,6.3,6.3,26,0.00,,,0.00,meteobridge,2013-05-20 20:30:00,
2013-05-20 13:35:00,80.2,43.2,29.56,SW,218,5.8,7.2,27,0.00,,,0.00,meteobridge,2013-05-20 20:35:00,
2013-05-20 13:37:00,78.6,43.7,29.56,SW,225,4.0,6.3,29,0.00,,,0.00,meteobridge,2013-05-20 20:37:00,
2013-05-20 13:39:00,79.9,43.9,29.56,SW,214,4.0,4.9,28,0.00,,,0.00,meteobridge,2013-05-20 20:39:00,
2013-05-20 13:45:00,81.0,43.9,29.56,WNW,303,4.9,6.3,27,0.00,,,0.00,meteobridge,2013-05-20 20:45:00,
2013-05-20 13:47:00,81.0,43.9,29.56,West,281,6.3,6.3,27,0.00,,,0.00,meteobridge,2013-05-20 20:47:00,
2013-05-20 13:49:00,79.9,43.0,29.56,SSW,212,5.8,5.8,27,0.00,,,0.00,meteobridge,2013-05-20 20:49:00,
2013-05-20 13:51:00,80.8,43.7,29.56,WNW,284,5.4,7.6,27,0.00,,,0.00,meteobridge,2013-05-20 20:51:00,
2013-05-20 13:53:00,82.8,43.3,29.56,WSW,246,3.1,5.8,25,0.00,,,0.00,meteobridge,2013-05-20 20:53:00,
2013-05-20 13:55:00,82.4,43.0,29.56,West,270,7.6,7.6,25,0.00,,,0.00,meteobridge,2013-05-20 20:55:00,
2013-05-20 14:00:00,83.3,43.9,29.56,West,265,5.8,6.3,25,0.00,,,0.00,meteobridge,2013-05-20 21:00:00,
2013-05-20 14:02:00,79.3,42.4,29.56,SSE,161,5.8,5.8,27,0.00,,,0.00,meteobridge,2013-05-20 21:02:00,
2013-05-20 14:06:00,81.9,42.6,29.56,SW,214,6.7,6.7,25,0.00,,,0.00,meteobridge,2013-05-20 21:06:00,
2013-05-20 14:12:00,82.8,42.3,29.56,WNW,288,4.0,6.3,24,0.00,,,0.00,meteobridge,2013-05-20 21:12:00,
2013-05-20 14:19:00,82.8,42.3,29.56,South,184,3.1,5.8,24,0.00,,,0.00,meteobridge,2013-05-20 21:19:00,
2013-05-20 14:21:00,82.0,42.8,29.56,SSE,163,2.7,5.4,25,0.00,,,0.00,meteobridge,2013-05-20 21:21:00,
2013-05-20 14:25:00,82.2,41.9,29.56,SW,223,8.1,8.1,24,0.00,,,0.00,meteobridge,2013-05-20 21:25:00,
2013-05-20 14:27:00,82.0,42.8,29.56,SW,214,5.4,6.7,25,0.00,,,0.00,meteobridge,2013-05-20 21:27:00,
2013-05-20 14:29:00,81.3,42.1,29.56,SSW,213,3.6,5.4,25,0.00,,,0.00,meteobridge,2013-05-20 21:29:00,
2013-05-20 14:31:00,81.3,42.1,29.56,SSW,209,5.4,5.8,25,0.00,,,0.00,meteobridge,2013-05-20 21:31:00,
2013-05-20 14:35:00,79.2,43.2,29.56,SSE,154,5.8,9.6,28,0.00,,,0.00,meteobridge,2013-05-20 21:35:00,
2013-05-20 14:37:00,79.0,42.1,29.56,SSE,158,2.2,8.1,27,0.00,,,0.00,meteobridge,2013-05-20 21:37:00,
2013-05-20 14:41:00,80.4,43.3,29.56,South,170,7.6,8.7,27,0.00,,,0.00,meteobridge,2013-05-20 21:41:00,
2013-05-20 14:44:00,79.5,42.6,29.56,SSE,167,7.6,7.6,27,0.00,,,0.00,meteobridge,2013-05-20 21:44:00,
2013-05-20 14:46:00,80.4,42.4,29.56,SW,225,3.1,8.7,26,0.00,,,0.00,meteobridge,2013-05-20 21:46:00,
2013-05-20 14:48:00,80.8,41.7,29.56,SSW,200,8.3,8.3,25,0.00,,,0.00,meteobridge,2013-05-20 21:48:00,
2013-05-20 14:52:00,79.9,41.9,29.56,South,170,5.8,8.1,26,0.00,,,0.00,meteobridge,2013-05-20 21:52:00,
2013-05-20 14:54:00,79.3,42.4,29.56,SSW,198,4.0,8.1,27,0.00,,,0.00,meteobridge,2013-05-20 21:54:00,
2013-05-20 14:56:00,81.1,41.9,29.56,SSW,210,3.1,5.8,25,0.00,,,0.00,meteobridge,2013-05-20 21:56:00,
2013-05-20 14:58:00,80.2,42.3,29.56,SSW,210,5.4,5.4,26,0.00,,,0.00,meteobridge,2013-05-20 21:58:00,
2013-05-20 15:00:00,80.1,42.1,29.56,SW,218,5.8,8.3,26,0.00,,,0.00,meteobridge,2013-05-20 22:00:00,
2013-05-20 15:02:00,80.1,42.1,29.56,South,180,7.6,8.1,26,0.00,,,0.00,meteobridge,2013-05-20 22:02:00,
2013-05-20 15:04:00,80.8,41.7,29.56,SSE,168,5.4,6.3,25,0.00,,,0.00,meteobridge,2013-05-20 22:04:00,
2013-05-20 15:09:00,79.9,43.0,29.56,WSW,238,4.0,6.3,27,0.00,,,0.00,meteobridge,2013-05-20 22:09:00,
2013-05-20 15:11:00,80.2,43.2,29.56,South,191,6.3,7.6,27,0.00,,,0.00,meteobridge,2013-05-20 22:11:00,
2013-05-20 15:13:00,80.2,42.3,29.56,SSW,207,4.0,5.8,26,0.00,,,0.00,meteobridge,2013-05-20 22:13:00,
2013-05-20 15:17:00,79.2,43.2,29.56,WSW,258,5.4,8.7,28,0.00,,,0.00,meteobridge,2013-05-20 22:17:00,
2013-05-20 15:19:00,79.9,43.0,29.56,South,186,4.0,7.6,27,0.00,,,0.00,meteobridge,2013-05-20 22:19:00,
2013-05-20 15:21:00,79.7,42.8,29.56,South,186,8.1,8.1,27,0.00,,,0.00,meteobridge,2013-05-20 22:21:00,
2013-05-20 15:27:00,78.1,44.1,29.56,South,171,5.8,8.7,30,0.00,,,0.00,meteobridge,2013-05-20 22:27:00,
2013-05-20 15:29:00,78.3,44.2,29.56,SSE,157,8.7,8.7,30,0.00,,,0.00,meteobridge,2013-05-20 22:29:00,
2013-05-20 15:32:00,77.4,44.4,29.56,SSW,203,4.0,10.1,31,0.00,,,0.00,meteobridge,2013-05-20 22:32:00,
2013-05-20 15:36:00,79.9,43.9,29.56,South,180,4.0,8.1,28,0.00,,,0.00,meteobridge,2013-05-20 22:36:00,
2013-05-20 15:38:00,80.2,44.2,29.56,South,177,5.4,9.2,28,0.00,,,0.00,meteobridge,2013-05-20 22:38:00,
2013-05-20 15:40:00,79.0,43.2,29.56,SW,229,7.6,7.6,28,0.00,,,0.00,meteobridge,2013-05-20 22:40:00,
2013-05-20 15:42:00,80.6,45.3,29.56,South,184,3.6,5.8,29,0.00,,,0.00,meteobridge,2013-05-20 22:42:00,
2013-05-20 15:44:00,77.5,44.6,29.56,South,190,8.3,10.1,31,0.00,,,0.00,meteobridge,2013-05-20 22:44:00,
2013-05-20 15:46:00,77.4,44.4,29.56,SW,222,7.6,8.7,31,0.00,,,0.00,meteobridge,2013-05-20 22:46:00,
2013-05-20 15:48:00,77.0,45.0,29.56,SSE,167,4.0,8.1,32,0.00,,,0.00,meteobridge,2013-05-20 22:48:00,
2013-05-20 15:50:00,79.5,45.3,29.56,West,270,6.3,7.6,30,0.00,,,0.00,meteobridge,2013-05-20 22:50:00,
2013-05-20 15:52:00,78.8,44.8,29.56,SSW,206,5.4,6.3,30,0.00,,,0.00,meteobridge,2013-05-20 22:52:00,
2013-05-20 15:55:00,79.2,45.1,29.56,SSE,166,8.7,9.6,30,0.00,,,0.00,meteobridge,2013-05-20 22:55:00,
2013-05-20 15:59:00,79.0,45.0,29.53,SSW,202,4.9,7.6,30,0.00,,,0.00,meteobridge,2013-05-20 22:59:00,
2013-05-20 16:01:00,79.9,44.8,29.53,SSW,195,2.2,5.8,29,0.00,,,0.00,meteobridge,2013-05-20 23:01:00,
2013-05-20 16:07:00,78.8,44.8,29.53,SSW,194,5.8,8.1,30,0.00,,,0.00,meteobridge,2013-05-20 23:07:00,
2013-05-20 16:09:00,79.0,45.0,29.53,SSW,196,4.0,8.1,30,0.00,,,0.00,meteobridge,2013-05-20 23:09:00,
2013-05-20 16:13:00,78.8,44.8,29.53,SW,230,3.6,4.9,30,0.00,,,0.00,meteobridge,2013-05-20 23:13:00,
2013-05-20 16:16:00,78.1,45.0,29.53,South,182,3.1,8.1,31,0.00,,,0.00,meteobridge,2013-05-20 23:16:00,
2013-05-20 16:20:00,78.3,45.1,29.53,SSE,166,3.1,7.6,31,0.00,,,0.00,meteobridge,2013-05-20 23:20:00,
2013-05-20 16:24:00,77.0,44.1,29.53,SSE,161,7.6,8.1,31,0.00,,,0.00,meteobridge,2013-05-20 23:24:00,
2013-05-20 16:26:00,76.6,44.6,29.53,SW,226,5.8,6.3,32,0.00,,,0.00,meteobridge,2013-05-20 23:26:00,
2013-05-20 16:28:00,76.8,44.8,29.53,SE,142,5.4,8.1,32,0.00,,,0.00,meteobridge,2013-05-20 23:28:00,
2013-05-20 16:30:00,77.0,45.0,29.53,South,188,5.4,7.6,32,0.00,,,0.00,meteobridge,2013-05-20 23:30:00,
2013-05-20 16:32:00,76.3,45.1,29.53,South,181,5.8,7.6,33,0.00,,,0.00,meteobridge,2013-05-20 23:32:00,
2013-05-20 16:34:00,77.0,45.0,29.53,ESE,116,4.9,8.1,32,0.00,,,0.00,meteobridge,2013-05-20 23:34:00,
2013-05-20 16:37:00,78.4,45.3,29.53,South,184,3.1,6.3,31,0.00,,,0.00,meteobridge,2013-05-20 23:37:00,
2013-05-20 16:41:00,78.4,45.3,29.53,SW,215,7.6,7.6,31,0.00,,,0.00,meteobridge,2013-05-20 23:41:00,
2013-05-20 16:43:00,76.6,44.6,29.53,South,190,4.9,8.1,32,0.00,,,0.00,meteobridge,2013-05-20 23:43:00,
2013-05-20 16:45:00,76.8,45.5,29.53,SW,217,4.9,6.3,33,0.00,,,0.00,meteobridge,2013-05-20 23:45:00,
2013-05-20 16:47:00,76.3,45.1,29.53,South,180,5.4,8.7,33,0.00,,,0.00,meteobridge,2013-05-20 23:47:00,
2013-05-20 16:53:00,77.5,45.3,29.53,SSW,202,4.0,5.4,32,0.00,,,0.00,meteobridge,2013-05-20 23:53:00,
2013-05-20 16:57:00,76.8,45.5,29.53,South,175,5.8,6.3,33,0.00,,,0.00,meteobridge,2013-05-20 23:57:00,
2013-05-20 17:02:00,76.6,45.3,29.53,SSW,206,3.6,6.3,33,0.00,,,0.00,meteobridge,2013-05-21 00:02:00,
2013-05-20 17:04:00,76.1,45.0,29.53,SW,224,3.1,7.6,33,0.00,,,0.00,meteobridge,2013-05-21 00:04:00,
2013-05-20 17:06:00,76.3,45.1,29.53,SE,138,4.9,6.7,33,0.00,,,0.00,meteobridge,2013-05-21 00:06:00,
2013-05-20 17:08:00,76.1,45.7,29.53,SSW,194,5.4,6.3,34,0.00,,,0.00,meteobridge,2013-05-21 00:08:00,
2013-05-20 17:10:00,76.1,45.0,29.53,South,179,4.9,5.8,33,0.00,,,0.00,meteobridge,2013-05-21 00:10:00,
2013-05-20 17:14:00,77.2,45.9,29.53,SE,146,3.6,5.8,33,0.00,,,0.00,meteobridge,2013-05-21 00:14:00,
2013-05-20 17:16:00,76.5,45.1,29.53,SSW,198,5.4,6.3,33,0.00,,,0.00,meteobridge,2013-05-21 00:16:00,
2013-05-20 17:20:00,76.5,45.1,29.53,South,176,8.7,8.7,33,0.00,,,0.00,meteobridge,2013-05-21 00:20:00,
2013-05-20 17:23:00,77.0,45.0,29.53,South,174,5.4,5.8,32,0.00,,,0.00,meteobridge,2013-05-21 00:23:00,
2013-05-20 17:25:00,75.6,44.4,29.53,South,182,5.4,8.1,33,0.00,,,0.00,meteobridge,2013-05-21 00:25:00,
2013-05-20 17:27:00,75.0,46.2,29.53,South,183,6.3,6.3,36,0.00,,,0.00,meteobridge,2013-05-21 00:27:00,
2013-05-20 17:33:00,74.1,48.9,29.53,South,180,6.3,6.3,41,0.00,,,0.00,meteobridge,2013-05-21 00:33:00,
2013-05-20 17:35:00,74.3,49.6,29.53,South,176,3.6,6.3,42,0.00,,,0.00,meteobridge,2013-05-21 00:35:00,
2013-05-20 17:39:00,74.7,49.5,29.53,South,189,5.8,5.8,41,0.00,,,0.00,meteobridge,2013-05-21 00:39:00,
2013-05-20 17:44:00,74.1,49.6,29.53,SSW,201,5.8,7.6,42,0.00,,,0.00,meteobridge,2013-05-21 00:44:00,
2013-05-20 17:46:00,74.1,49.6,29.53,SSW,202,5.4,5.8,42,0.00,,,0.00,meteobridge,2013-05-21 00:46:00,
2013-05-20 17:50:00,73.8,49.8,29.53,South,181,6.3,6.3,43,0.00,,,0.00,meteobridge,2013-05-21 00:50:00,
2013-05-20 17:52:00,73.6,50.4,29.53,SW,228,4.0,6.3,44,0.00,,,0.00,meteobridge,2013-05-21 00:52:00,
2013-05-20 17:54:00,73.4,50.7,29.53,SE,141,3.1,6.3,45,0.00,,,0.00,meteobridge,2013-05-21 00:54:00,
2013-05-20 17:56:00,73.9,50.0,29.53,SSE,155,4.0,5.8,43,0.00,,,0.00,meteobridge,2013-05-21 00:56:00,
2013-05-20 17:58:00,73.8,49.8,29.53,South,185,3.6,8.3,43,0.00,,,0.00,meteobridge,2013-05-21 00:58:00,
2013-05-20 18:02:00,73.4,50.2,29.53,SSW,192,6.3,6.7,44,0.00,,,0.00,meteobridge,2013-05-21 01:02:00,
2013-05-20 18:04:00,73.8,50.5,29.53,SE,137,0.0,5.8,44,0.00,,,0.00,meteobridge,2013-05-21 01:04:00,
2013-05-20 18:07:00,74.3,50.4,29.53,SSW,192,3.1,4.0,43,0.00,,,0.00,meteobridge,2013-05-21 01:07:00,
2013-05-20 18:09:00,74.7,50.7,29.53,SE,139,3.6,4.9,43,0.00,,,0.00,meteobridge,2013-05-21 01:09:00,
2013-05-20 18:11:00,74.1,48.9,29.53,South,172,5.8,5.8,41,0.00,,,0.00,meteobridge,2013-05-21 01:11:00,
2013-05-20 18:13:00,73.8,49.8,29.50,SE,127,2.7,5.8,43,0.00,,,0.00,meteobridge,2013-05-21 01:13:00,
2013-05-20 18:15:00,73.8,49.8,29.50,South,182,2.2,4.0,43,0.00,,,0.00,meteobridge,2013-05-21 01:15:00,
2013-05-20 18:19:00,73.8,50.5,29.50,South,187,4.9,5.8,44,0.00,,,0.00,meteobridge,2013-05-21 01:19:00,
2013-05-20 18:23:00,73.8,49.8,29.50,SW,222,4.0,4.0,43,0.00,,,0.00,meteobridge,2013-05-21 01:23:00,
2013-05-20 18:25:00,73.0,50.4,29.50,SW,224,3.6,5.4,45,0.00,,,0.00,meteobridge,2013-05-21 01:25:00,
2013-05-20 18:28:00,73.4,50.7,29.50,South,186,5.4,6.3,45,0.00,,,0.00,meteobridge,2013-05-21 01:28:00,
2013-05-20 18:30:00,73.0,50.4,29.50,SW,220,5.4,5.4,45,0.00,,,0.00,meteobridge,2013-05-21 01:30:00,
2013-05-20 18:32:00,73.2,50.5,29.50,SSE,163,3.1,5.4,45,0.00,,,0.00,meteobridge,2013-05-21 01:32:00,
2013-05-20 18:34:00,73.6,50.9,29.50,SSW,204,5.8,5.8,45,0.00,,,0.00,meteobridge,2013-05-21 01:34:00,
2013-05-20 18:36:00,73.4,50.2,29.50,SE,137,3.6,5.8,44,0.00,,,0.00,meteobridge,2013-05-21 01:36:00,
2013-05-20 18:42:00,73.4,50.2,29.50,SSE,149,0.0,4.9,44,0.00,,,0.00,meteobridge,2013-05-21 01:42:00,
2013-05-20 18:44:00,73.6,47.8,29.53,SSW,192,5.8,5.8,40,0.00,,,0.00,meteobridge,2013-05-21 01:44:00,
2013-05-20 18:46:00,73.4,49.5,29.53,SSW,207,4.9,6.3,43,0.00,,,0.00,meteobridge,2013-05-21 01:46:00,
2013-05-20 18:48:00,73.0,49.8,29.53,SSW,198,4.9,5.8,44,0.00,,,0.00,meteobridge,2013-05-21 01:48:00,
2013-05-20 18:50:00,72.7,50.7,29.53,SSE,157,3.1,3.6,46,0.00,,,0.00,meteobridge,2013-05-21 01:50:00,
2013-05-20 18:56:00,72.7,50.7,29.53,East,101,2.2,4.0,46,0.00,,,0.00,meteobridge,2013-05-21 01:56:00,
2013-05-20 18:58:00,72.7,51.3,29.53,South,186,4.9,5.4,47,0.00,,,0.00,meteobridge,2013-05-21 01:58:00,
2013-05-20 19:01:00,72.3,51.4,29.53,South,169,4.0,6.3,48,0.00,,,0.00,meteobridge,2013-05-21 02:01:00,
2013-05-20 19:03:00,72.5,52.3,29.53,SSW,203,3.1,6.3,49,0.00,,,0.00,meteobridge,2013-05-21 02:03:00,
2013-05-20 19:05:00,72.1,52.5,29.53,South,173,6.3,6.3,50,0.00,,,0.00,meteobridge,2013-05-21 02:05:00,
2013-05-20 19:07:00,72.3,53.2,29.53,SSW,196,0.0,7.6,51,0.00,,,0.00,meteobridge,2013-05-21 02:07:00,
2013-05-20 19:09:00,72.3,53.2,29.53,South,180,5.4,5.4,51,0.00,,,0.00,meteobridge,2013-05-21 02:09:00,
2013-05-20 19:11:00,72.3,53.8,29.53,SSE,167,5.4,7.6,52,0.00,,,0.00,meteobridge,2013-05-21 02:11:00,
2013-05-20 19:15:00,72.1,54.1,29.53,ESE,123,3.1,6.3,53,0.00,,,0.00,meteobridge,2013-05-21 02:15:00,
2013-05-20 19:17:00,72.1,54.1,29.53,South,175,3.6,4.0,53,0.00,,,0.00,meteobridge,2013-05-21 02:17:00,
2013-05-20 19:19:00,72.3,54.1,29.53,SSE,154,3.6,4.0,53,0.00,,,0.00,meteobridge,2013-05-21 02:19:00,
2013-05-20 19:21:00,72.1,54.1,29.53,South,173,3.6,6.3,53,0.00,,,0.00,meteobridge,2013-05-21 02:21:00,
2013-05-20 19:23:00,72.3,54.1,29.53,South,169,5.4,5.4,53,0.00,,,0.00,meteobridge,2013-05-21 02:23:00,
2013-05-20 19:28:00,72.1,54.5,29.53,SSE,149,3.6,6.3,54,0.00,,,0.00,meteobridge,2013-05-21 02:28:00,
2013-05-20 19:30:00,72.0,54.3,29.53,South,182,2.7,4.0,54,0.00,,,0.00,meteobridge,2013-05-21 02:30:00,
2013-05-20 19:36:00,72.0,55.4,29.53,SE,146,3.1,4.9,56,0.00,,,0.00,meteobridge,2013-05-21 02:36:00,
2013-05-20 19:38:00,71.8,55.2,29.53,SSE,149,3.1,5.4,56,0.00,,,0.00,meteobridge,2013-05-21 02:38:00,
2013-05-20 19:40:00,71.6,55.0,29.53,SE,141,2.7,3.1,56,0.00,,,0.00,meteobridge,2013-05-21 02:40:00,
2013-05-20 19:42:00,71.2,54.7,29.53,East,87,2.7,4.0,56,0.00,,,0.00,meteobridge,2013-05-21 02:42:00,
2013-05-20 19:44:00,71.2,55.8,29.53,SSE,155,0.0,2.7,58,0.00,,,0.00,meteobridge,2013-05-21 02:44:00,
2013-05-20 19:46:00,71.2,56.1,29.53,South,169,0.0,0.0,59,0.00,,,0.00,meteobridge,2013-05-21 02:46:00,
2013-05-20 19:51:00,71.4,57.2,29.53,SSE,152,3.1,4.0,61,0.00,,,0.00,meteobridge,2013-05-21 02:51:00,
2013-05-20 19:53:00,71.2,56.7,29.53,South,171,5.8,5.8,60,0.00,,,0.00,meteobridge,2013-05-21 02:53:00,
2013-05-20 19:55:00,71.2,56.7,29.53,SSE,163,0.0,3.1,60,0.00,,,0.00,meteobridge,2013-05-21 02:55:00,
2013-05-20 19:57:00,71.2,57.0,29.53,SE,133,2.7,3.6,61,0.00,,,0.00,meteobridge,2013-05-21 02:57:00,
2013-05-20 20:01:00,71.1,57.4,29.50,SE,133,2.7,4.9,62,0.00,,,0.00,meteobridge,2013-05-21 03:01:00,
2013-05-20 20:03:00,71.2,57.6,29.50,South,174,4.0,4.0,62,0.00,,,0.00,meteobridge,2013-05-21 03:03:00,
2013-05-20 20:05:00,71.1,57.4,29.50,SE,146,0.0,4.9,62,0.00,,,0.00,meteobridge,2013-05-21 03:05:00,
2013-05-20 20:09:00,71.1,57.4,29.50,South,181,0.0,3.6,62,0.00,,,0.00,meteobridge,2013-05-21 03:09:00,
2013-05-20 20:11:00,71.1,57.4,29.50,South,180,4.0,4.0,62,0.00,,,0.00,meteobridge,2013-05-21 03:11:00,
2013-05-20 20:16:00,71.2,57.9,29.53,SSE,160,4.0,4.0,63,0.00,,,0.00,meteobridge,2013-05-21 03:16:00,
2013-05-20 20:22:00,71.4,57.2,29.53,South,185,3.1,4.9,61,0.00,,,0.00,meteobridge,2013-05-21 03:22:00,
2013-05-20 20:24:00,71.4,57.2,29.53,SSW,203,2.2,3.6,61,0.00,,,0.00,meteobridge,2013-05-21 03:24:00,
2013-05-20 20:28:00,71.4,57.2,29.53,SSE,160,2.7,4.9,61,0.00,,,0.00,meteobridge,2013-05-21 03:28:00,
2013-05-20 20:30:00,71.4,56.8,29.53,SSW,197,3.1,4.0,60,0.00,,,0.00,meteobridge,2013-05-21 03:30:00,
2013-05-20 20:37:00,71.4,57.2,29.53,South,181,4.5,4.9,61,0.00,,,0.00,meteobridge,2013-05-21 03:37:00,
2013-05-20 20:39:00,71.2,57.0,29.53,SSE,167,2.7,5.4,61,0.00,,,0.00,meteobridge,2013-05-21 03:39:00,
2013-05-20 20:41:00,71.4,57.2,29.53,South,170,0.0,0.0,61,0.00,,,0.00,meteobridge,2013-05-21 03:41:00,
2013-05-20 20:45:00,71.4,57.2,29.53,South,186,3.1,3.1,61,0.00,,,0.00,meteobridge,2013-05-21 03:45:00,
2013-05-20 20:47:00,71.4,57.7,29.53,SSE,150,0.0,2.7,62,0.00,,,0.00,meteobridge,2013-05-21 03:47:00,
2013-05-20 20:49:00,71.6,57.4,29.53,SSE,164,0.0,2.7,61,0.00,,,0.00,meteobridge,2013-05-21 03:49:00,
2013-05-20 20:53:00,71.6,57.0,29.53,South,183,3.1,4.0,60,0.00,,,0.00,meteobridge,2013-05-21 03:53:00,
2013-05-20 20:57:00,71.6,57.0,29.53,SSE,153,0.0,4.9,60,0.00,,,0.00,meteobridge,2013-05-21 03:57:00,
2013-05-20 20:59:00,71.4,56.8,29.53,SSW,212,3.1,3.1,60,0.00,,,0.00,meteobridge,2013-05-21 03:59:00,
2013-05-20 21:11:00,-999.0,-99.9,-100.00,South,170,2.7,2.7,-999,-99.99,,,0.00,meteobridge,2013-05-21 04:11:00,
2013-05-20 21:24:00,-999.0,-99.9,29.56,North,-999,-999.0,-999.0,-999,-99.99,,,0.00,meteobridge,2013-05-21 04:24:00,
2013-05-20 21:36:00,71.1,57.7,29.56,SSE,157,0.0,0.0,63,0.00,,,0.00,meteobridge,2013-05-21 04:36:00,
2013-05-20 21:38:00,70.9,57.7,29.56,South,186,0.0,3.6,63,0.00,,,0.00,meteobridge,2013-05-21 04:38:00,
2013-05-20 21:40:00,71.1,57.7,29.56,SSE,153,0.0,4.0,63,0.00,,,0.00,meteobridge,2013-05-21 04:40:00,
2013-05-20 21:42:00,70.9,57.7,29.56,ESE,105,5.4,5.8,63,0.00,,,0.00,meteobridge,2013-05-21 04:42:00,
2013-05-20 21:46:00,70.7,57.9,29.56,SE,143,0.0,3.6,64,0.00,,,0.00,meteobridge,2013-05-21 04:46:00,
2013-05-20 21:48:00,70.3,57.2,29.56,ESE,109,0.0,0.0,63,0.00,,,0.00,meteobridge,2013-05-21 04:48:00,
2013-05-20 21:50:00,70.3,57.2,29.56,East,83,2.7,5.4,63,0.00,,,0.00,meteobridge,2013-05-21 04:50:00,
2013-05-20 21:54:00,70.3,58.5,29.56,SE,138,3.1,3.1,66,0.00,,,0.00,meteobridge,2013-05-21 04:54:00,
2013-05-20 21:56:00,70.2,58.3,29.56,East,98,3.6,5.8,66,0.00,,,0.00,meteobridge,2013-05-21 04:56:00,
2013-05-20 21:58:00,70.2,58.3,29.56,SE,140,2.2,5.8,66,0.00,,,0.00,meteobridge,2013-05-21 04:58:00,
2013-05-20 22:03:00,70.2,58.6,29.56,SE,140,3.1,3.6,67,0.00,,,0.00,meteobridge,2013-05-21 05:03:00,
2013-05-20 22:05:00,70.2,59.2,29.56,SSE,150,2.7,4.0,68,0.00,,,0.00,meteobridge,2013-05-21 05:05:00,
2013-05-20 22:09:00,70.0,59.4,29.56,SE,146,0.0,3.1,69,0.00,,,0.00,meteobridge,2013-05-21 05:09:00,
2013-05-20 22:11:00,70.0,59.4,29.56,SE,132,3.6,4.0,69,0.00,,,0.00,meteobridge,2013-05-21 05:11:00,
2013-05-20 22:13:00,69.8,59.2,29.56,SE,133,0.0,3.1,69,0.00,,,0.00,meteobridge,2013-05-21 05:13:00,
2013-05-20 22:15:00,69.6,59.0,29.56,ESE,106,0.0,0.0,69,0.00,,,0.00,meteobridge,2013-05-21 05:15:00,
2013-05-20 22:17:00,69.6,59.4,29.56,SE,130,0.0,0.0,70,0.00,,,0.00,meteobridge,2013-05-21 05:17:00,
2013-05-20 22:19:00,69.8,59.9,29.56,SE,128,3.6,3.6,71,0.00,,,0.00,meteobridge,2013-05-21 05:19:00,
2013-05-20 22:22:00,69.6,60.3,29.56,SE,131,0.0,3.6,72,0.00,,,0.00,meteobridge,2013-05-21 05:22:00,
2013-05-20 22:26:00,69.6,60.6,29.56,SSE,156,4.0,4.0,73,0.00,,,0.00,meteobridge,2013-05-21 05:26:00,
2013-05-20 22:28:00,69.4,60.4,29.56,SE,130,2.7,4.0,73,0.00,,,0.00,meteobridge,2013-05-21 05:28:00,
2013-05-20 22:34:00,69.1,60.1,29.56,ESE,109,3.6,4.9,73,0.00,,,0.00,meteobridge,2013-05-21 05:34:00,
2013-05-20 22:36:00,69.1,60.1,29.56,ESE,108,4.0,6.3,73,0.00,,,0.00,meteobridge,2013-05-21 05:36:00,
2013-05-20 22:38:00,69.3,60.3,29.56,East,101,4.9,6.3,73,0.00,,,0.00,meteobridge,2013-05-21 05:38:00,
2013-05-20 22:44:00,68.9,60.3,29.56,ESE,107,2.7,4.0,74,0.00,,,0.00,meteobridge,2013-05-21 05:44:00,
2013-05-20 22:47:00,69.1,60.8,29.56,ESE,111,3.1,4.0,75,0.00,,,0.00,meteobridge,2013-05-21 05:47:00,
2013-05-20 22:51:00,68.9,60.6,29.56,East,95,3.6,3.6,75,0.00,,,0.00,meteobridge,2013-05-21 05:51:00,
2013-05-20 22:53:00,68.9,60.6,29.56,East,92,3.6,4.9,75,0.00,,,0.00,meteobridge,2013-05-21 05:53:00,
2013-05-20 22:55:00,68.9,61.0,29.56,ESE,116,4.9,5.8,76,0.00,,,0.00,meteobridge,2013-05-21 05:55:00,
2013-05-20 22:57:00,68.9,61.0,29.56,ESE,111,5.8,6.3,76,0.00,,,0.00,meteobridge,2013-05-21 05:57:00,
2013-05-20 22:59:00,68.9,61.0,29.56,SSE,151,3.1,4.9,76,0.00,,,0.00,meteobridge,2013-05-21 05:59:00,
2013-05-20 23:03:00,68.7,60.8,29.56,ESE,105,3.1,5.4,76,0.00,,,0.00,meteobridge,2013-05-21 06:03:00,
2013-05-20 23:09:00,68.7,61.2,29.56,ESE,103,5.4,5.4,77,0.00,,,0.00,meteobridge,2013-05-21 06:09:00,
2013-05-20 23:12:00,68.9,61.3,29.56,ESE,114,4.5,5.8,77,0.00,,,0.00,meteobridge,2013-05-21 06:12:00,
2013-05-20 23:16:00,68.9,61.7,29.56,SE,145,2.7,3.1,78,0.00,,,0.00,meteobridge,2013-05-21 06:16:00,
2013-05-20 23:18:00,69.1,61.9,29.56,ESE,123,3.6,5.8,78,0.00,,,0.00,meteobridge,2013-05-21 06:18:00,
2013-05-20 23:22:00,68.9,61.7,29.56,SE,134,0.0,3.1,78,0.00,,,0.00,meteobridge,2013-05-21 06:22:00,
2013-05-20 23:26:00,68.9,61.7,29.56,SE,144,2.7,3.1,78,0.00,,,0.00,meteobridge,2013-05-21 06:26:00,
2013-05-20 23:28:00,69.1,61.9,29.56,SE,146,2.7,4.0,78,0.00,,,0.00,meteobridge,2013-05-21 06:28:00,
2013-05-20 23:33:00,68.9,61.7,29.56,ESE,105,0.0,2.2,78,0.00,,,0.00,meteobridge,2013-05-21 06:33:00,
2013-05-20 23:35:00,68.7,61.5,29.56,SSE,149,2.7,2.7,78,0.00,,,0.00,meteobridge,2013-05-21 06:35:00,
2013-05-20 23:39:00,68.7,61.5,29.56,SE,138,0.0,0.0,78,0.00,,,0.00,meteobridge,2013-05-21 06:39:00,
2013-05-20 23:41:00,68.5,61.3,29.56,SE,137,0.0,0.0,78,0.00,,,0.00,meteobridge,2013-05-21 06:41:00,
2013-05-20 23:43:00,68.5,61.3,29.56,ESE,112,0.0,0.0,78,0.00,,,0.00,meteobridge,2013-05-21 06:43:00,
2013-05-20 23:47:00,68.9,62.1,29.56,SE,131,0.0,3.1,79,0.00,,,0.00,meteobridge,2013-05-21 06:47:00,
2013-05-20 23:49:00,69.1,62.2,29.56,SE,144,0.0,0.0,79,0.00,,,0.00,meteobridge,2013-05-21 06:49:00,
2013-05-20 23:51:00,69.3,62.8,29.56,SE,134,3.1,3.6,80,0.00,,,0.00,meteobridge,2013-05-21 06:51:00,
2013-05-20 23:53:00,69.4,63.0,29.56,SE,142,2.7,4.0,80,0.00,,,0.00,meteobridge,2013-05-21 06:53:00,
2013-05-20 23:55:00,69.6,62.8,29.56,SE,140,0.0,3.1,79,0.00,,,0.00,meteobridge,2013-05-21 06:55:00,
2013-05-20 23:58:00,69.8,62.6,29.56,SE,138,0.0,0.0,78,0.00,,,0.00,meteobridge,2013-05-21 06:58:00,